{"data":{"norad_id":69116,"intl_designator":"2026-108N","name":"QIANFAN-157","alt_names":[],"object_type":"PAYLOAD","status":"ACTIVE","operator":null,"country":"PRC","launch_date":"2026-05-17","launch_site_code":"WSC","launch_vehicle":null,"mission":null,"orbit_class":"UNKNOWN","rcs_meters":null,"size_class":null,"mass_kg":null,"dimensions":null,"purposes":[],"wikipedia_slug":null,"has_3d_model":false,"image_url":null,"decayed_at":null,"tle_current":{"epoch":"2026-09-20T02:54:21.309408Z","epoch_age_seconds":55921,"freshness":"FRESH","line1":"1 69116U 26108N   26263.12107997  .00000119  00000+0  16557-3 0  9992","line2":"2 69116  89.0190  12.4705 0002110 111.2022 248.9355 13.51028495 17310","mean_motion":13.51028495,"eccentricity":0.000211,"inclination_deg":89.019,"raan_deg":12.4705,"arg_perigee_deg":111.2022,"mean_anomaly_deg":248.9355,"bstar":0.00016557,"rev_number":1731,"period_min":106.58546472774,"perigee_km":1066.9056418382,"apogee_km":1070.0481128944,"semimajor_km":7446.6138773663,"source":"CELESTRAK","updated_at":"2026-09-20T09:00:24.682268Z"}}}